Latest Weather Observations for Rhyll

IDV60801

Issued at 1:31 pm EDT Thursday 5 March 2015 (issued every 30 minutes, with the page automatically refreshed every 10 minutes)

About weather observations | Map of weather stations | Latest weather observations for VIC | Other Formats
Station Details ID: 086373 Name: RHYLL Lat: -38.46 Lon: 145.31 Height: 13.4 m
Data from the previous 72 hours. | See also: Recent months at Rhyll
Date/Time
EDT
Temp
°C
App
Temp
°C
Dew
Point
Rel
Hum
%
Delta-T
°C
Wind Press
QNH
hPa
Press
MSL
hPa
Rain
since 9 am
mm
Dir
 
Spd
km/h
Gust
km/h
Spd
kts
Gust
kts
05/01:30pm 16.2 10.9 6.6 53 4.7 SW 24 37 13 20 1016.7 1016.7 0.4
05/01:00pm 15.9 11.6 7.1 56 4.3 SW 19 33 10 18 1017.1 1017.1 0.4
05/12:30pm 16.8 11.8 6.3 50 5.1 SW 22 39 12 21 1017.2 1017.2 0.4
05/12:00pm 16.5 11.4 5.8 49 5.2 SW 22 37 12 20 1017.0 1017.0 0.4
05/11:30am 16.1 9.7 5.1 48 5.2 SW 28 48 15 26 1016.9 1016.9 0.4
05/11:00am 16.2 10.2 7.2 55 4.5 SW 28 46 15 25 1016.8 1016.8 0.4
05/10:32am 14.4 8.3 6.5 59 3.8 SW 28 48 15 26 1016.5 1016.5 0.4
05/10:30am 14.7 9.0 6.8 59 3.8 SW 26 43 14 23 1016.5 1016.5 0.4
05/10:00am 12.9 8.2 7.6 70 2.6 SW 22 43 12 23 1016.2 1016.2 0.4
05/09:37am 14.1 7.8 5.5 56 4.1 SW 28 54 15 29 1015.7 1015.7 0.2
05/09:30am 13.0 8.3 6.1 63 3.3 WSW 20 37 11 20 1015.6 1015.6 0.0
05/09:17am 12.1 6.2 7.6 74 2.2 SW 28 50 15 27 1015.5 1015.5 0.0
05/09:00am 12.3 7.8 8.4 77 1.9 WSW 22 41 12 22 1015.3 1015.3 6.8
05/08:30am 13.8 7.5 5.9 59 3.7 SW 28 48 15 26 1014.4 1014.4 6.6
05/08:29am 13.9 7.6 5.5 57 4.0 SW 28 48 15 26 1014.4 1014.4 6.6
05/08:00am 13.6 7.5 6.5 62 3.4 SW 28 43 15 23 1014.1 1014.1 6.6
05/07:43am 13.7 7.7 7.0 64 3.3 SW 28 52 15 28 1013.5 1013.5 6.6
05/07:30am 13.5 8.2 4.9 56 4.0 WSW 22 44 12 24 1013.4 1013.4 6.6
05/07:00am 13.3 7.1 4.5 55 4.0 WSW 26 50 14 27 1013.1 1013.0 6.6
05/06:30am 12.4 5.6 6.9 69 2.6 SW 32 56 17 30 1012.4 1012.3 6.6
05/06:23am 13.6 7.4 6.2 61 3.5 WSW 28 50 15 27 1012.2 1012.1 6.6
05/06:00am 12.6 7.8 7.5 71 2.5 WSW 22 39 12 21 1012.2 1012.1 6.6
05/05:30am 13.6 6.8 5.0 56 4.0 WSW 30 54 16 29 1011.5 1011.4 6.4
05/05:00am 13.7 6.4 5.6 58 3.8 WSW 33 52 18 28 1011.0 1010.9 6.4
05/04:30am - - - - - WSW 32 63 17 34 1010.2 1010.1 6.4
05/04:04am 13.6 7.9 8.2 70 2.7 WSW 28 57 15 31 1010.0 1009.9 6.4
05/04:00am 13.5 8.7 9.0 74 2.3 WSW 24 44 13 24 1010.0 1009.9 6.4
05/03:34am 12.8 7.6 10.2 84 1.3 WSW 28 61 15 33 1009.3 1009.2 6.4
05/03:30am 12.8 8.8 10.5 86 1.2 WSW 22 41 12 22 1009.3 1009.2 6.2
05/03:00am 13.0 7.4 11.6 91 0.7 WSW 32 57 17 31 1008.7 1008.6 5.4
05/02:40am 13.6 9.0 12.3 92 0.7 W 28 59 15 32 1008.4 1008.3 4.8
05/02:30am 14.2 11.4 13.1 93 0.6 W 20 35 11 19 1008.2 1008.1 4.4
05/02:00am 14.4 10.9 13.4 94 0.6 WSW 24 46 13 25 1008.1 1008.0 2.6
05/01:30am 17.2 14.2 12.7 75 2.5 W 20 41 11 22 1007.8 1007.7 0.0
05/01:00am 17.6 14.5 12.3 71 2.9 W 20 43 11 23 1007.7 1007.6 0.0
05/12:30am 18.0 15.0 12.0 68 3.3 W 19 39 10 21 1008.0 1007.9 0.0
05/12:00am 18.1 15.6 12.3 69 3.2 W 17 32 9 17 1007.8 1007.7 0.0
 
Date/Time
EDT
Temp
°C
App
Temp
°C
Dew
Point
Rel
Hum
%
Delta-T
°C
Wind Press
QNH
hPa
Press
MSL
hPa
Rain
since 9 am
mm
Dir
 
Spd
km/h
Gust
km/h
Spd
kts
Gust
kts
04/11:30pm 18.0 17.1 12.5 70 3.1 W 9 17 5 9 1008.1 1008.0 0.0
04/11:00pm 18.5 16.4 12.3 67 3.5 W 15 30 8 16 1008.2 1008.1 0.0
04/10:30pm 18.3 17.0 12.5 69 3.2 W 11 20 6 11 1008.5 1008.4 0.0
04/10:00pm 18.1 17.5 13.6 75 2.6 WSW 9 17 5 9 1008.6 1008.5 0.0
04/09:30pm 18.0 17.5 13.7 76 2.4 WSW 9 15 5 8 1008.7 1008.6 0.0
04/09:00pm 18.0 17.8 13.5 75 2.6 WSW 7 13 4 7 1008.8 1008.7 0.0
04/08:30pm 17.7 18.2 12.8 73 2.7 WSW 2 6 1 3 1008.9 1008.8 0.0
04/08:00pm 18.5 18.2 12.7 69 3.3 W 6 11 3 6 1008.9 1008.8 0.0
04/07:30pm 19.3 18.4 12.6 65 3.8 WSW 9 15 5 8 1009.2 1009.1 0.0
04/07:00pm 20.0 19.0 12.3 61 4.3 WSW 9 17 5 9 1009.4 1009.3 0.0
04/06:30pm 20.9 19.4 11.8 56 5.1 W 11 20 6 11 1009.7 1009.6 0.0
04/06:00pm 21.7 19.7 11.4 52 5.7 W 13 22 7 12 1009.9 1009.8 0.0
04/05:30pm 21.6 19.9 11.3 52 5.7 W 11 22 6 12 1010.1 1010.0 0.0
04/05:00pm 20.8 18.0 11.2 54 5.3 W 17 32 9 17 1010.4 1010.3 0.0
04/04:30pm 20.6 19.6 12.3 59 4.7 NW 9 17 5 9 1010.7 1010.6 0.0
04/04:00pm 20.4 19.2 11.6 57 4.9 W 9 19 5 10 1011.2 1011.1 0.0
04/03:30pm 20.6 19.4 11.5 56 5.0 WNW 9 19 5 10 1011.5 1011.4 0.0
04/03:00pm 20.2 18.6 11.4 57 4.9 NW 11 20 6 11 1012.0 1011.9 0.0
04/02:30pm 20.1 18.9 11.6 58 4.7 NW 9 20 5 11 1012.4 1012.3 0.0
04/02:00pm 20.6 19.0 11.5 56 5.0 NW 11 22 6 12 1012.5 1012.4 0.0
04/01:30pm 20.0 18.4 11.5 58 4.7 WNW 11 20 6 11 1012.9 1012.8 0.0
04/01:00pm 19.9 17.8 11.1 57 4.8 NW 13 20 7 11 1013.3 1013.2 0.0
04/12:30pm 20.2 18.6 11.4 57 4.9 WNW 11 20 6 11 1013.8 1013.8 0.0
04/12:00pm 19.7 17.9 10.7 56 4.9 WNW 11 22 6 12 1014.2 1014.2 0.0
04/11:30am 18.9 17.6 11.2 61 4.2 WNW 9 20 5 11 1014.6 1014.6 0.0
04/11:00am 19.2 18.0 11.7 62 4.1 WNW 9 19 5 10 1014.7 1014.7 0.0
04/10:30am 17.8 16.3 11.8 68 3.3 WNW 11 22 6 12 1014.9 1014.9 0.0
04/10:00am 17.5 15.9 11.5 68 3.3 NW 11 19 6 10 1014.8 1014.8 0.0
04/09:30am 17.2 15.6 11.5 69 3.1 WNW 11 20 6 11 1014.8 1014.8 0.0
04/09:00am 16.7 15.1 11.6 72 2.8 NW 11 24 6 13 1014.7 1014.7 0.0
04/08:30am 16.3 15.1 11.5 73 2.6 NW 9 22 5 12 1014.6 1014.6 0.0
04/08:00am 15.8 14.9 11.4 75 2.4 WNW 7 15 4 8 1014.4 1014.4 0.0
04/07:30am 15.4 14.0 11.0 75 2.3 WNW 9 19 5 10 1014.4 1014.4 0.0
04/07:00am 15.6 14.7 11.2 75 2.4 WNW 7 13 4 7 1014.2 1014.2 0.0
04/06:30am 15.7 14.7 11.1 74 2.5 W 7 13 4 7 1014.0 1014.0 0.0
04/06:00am 15.4 14.5 10.8 74 2.4 W 6 11 3 6 1014.0 1014.0 0.0
04/05:30am 15.8 14.9 11.2 74 2.5 W 7 15 4 8 1014.2 1014.2 0.0
04/05:00am 15.8 14.9 11.2 74 2.5 W 7 11 4 6 1014.2 1014.2 0.0
04/04:30am 15.9 15.3 11.7 76 2.3 W 6 9 3 5 1014.3 1014.3 0.0
04/04:00am 15.9 15.3 11.7 76 2.3 W 6 7 3 4 1014.6 1014.6 0.0
04/03:30am 15.7 14.9 11.1 74 2.5 W 6 7 3 4 1014.7 1014.7 0.0
04/03:00am 15.1 14.3 10.9 76 2.2 W 6 7 3 4 1014.9 1014.9 0.0
04/02:30am 14.9 14.0 10.7 76 2.2 W 6 7 3 4 1015.1 1015.1 0.0
04/02:00am 14.9 14.0 10.7 76 2.2 W 6 9 3 5 1015.4 1015.4 0.0
04/01:30am 15.5 14.5 10.9 74 2.4 WSW 7 13 4 7 1015.6 1015.6 0.0
04/01:00am 15.4 14.4 11.0 75 2.3 SW 7 13 4 7 1015.8 1015.8 0.0
04/12:30am 15.5 14.6 11.3 76 2.3 SW 7 11 4 6 1016.1 1016.1 0.0
04/12:00am 15.6 14.9 12.0 79 2.0 SW 7 9 4 5 1016.3 1016.3 0.0
 
Date/Time
EDT
Temp
°C
App
Temp
°C
Dew
Point
Rel
Hum
%
Delta-T
°C
Wind Press
QNH
hPa
Press
MSL
hPa
Rain
since 9 am
mm
Dir
 
Spd
km/h
Gust
km/h
Spd
kts
Gust
kts
03/11:30pm 15.8 15.3 12.0 78 2.1 SW 6 11 3 6 1016.5 1016.5 0.0
03/11:00pm 15.6 14.8 11.2 75 2.4 SW 6 9 3 5 1016.6 1016.6 0.0
03/10:30pm 15.9 15.2 11.9 77 2.2 SW 7 9 4 5 1016.8 1016.8 0.0
03/10:00pm 16.1 15.4 11.9 76 2.3 SW 7 11 4 6 1016.8 1016.8 0.0
03/09:30pm 16.1 15.8 11.5 74 2.5 WSW 4 6 2 3 1016.6 1016.6 0.0
03/09:00pm 16.1 15.4 11.3 73 2.6 SW 6 7 3 4 1016.4 1016.4 0.0
03/08:30pm 16.6 15.7 11.5 72 2.8 SW 7 11 4 6 1016.2 1016.2 0.0
03/08:00pm 17.0 15.7 11.3 69 3.1 SW 9 13 5 7 1015.9 1015.9 0.0
03/07:30pm 18.1 16.8 11.2 64 3.7 SW 9 15 5 8 1015.8 1015.8 0.0
03/07:00pm 19.5 18.8 11.5 60 4.4 S 6 11 3 6 1015.7 1015.7 0.0
03/06:30pm 19.5 18.8 11.5 60 4.4 S 6 9 3 5 1015.6 1015.6 0.0
03/06:00pm 20.1 19.4 11.3 57 4.8 S 6 9 3 5 1015.6 1015.6 0.0
03/05:30pm 20.4 19.7 11.3 56 5.0 S 6 9 3 5 1015.7 1015.7 0.0
03/05:00pm 21.1 20.2 11.2 53 5.5 S 7 13 4 7 1015.7 1015.7 0.0
03/04:30pm 20.6 19.4 11.5 56 5.0 SSE 9 13 5 7 1016.0 1016.0 0.0
03/04:00pm 21.0 19.7 11.1 53 5.4 S 9 17 5 9 1016.2 1016.2 0.0
03/03:30pm 20.8 19.0 10.9 53 5.4 S 11 22 6 12 1016.5 1016.5 0.0
03/03:00pm 22.3 20.8 12.0 52 5.8 S 11 20 6 11 1016.6 1016.6 0.0
03/02:30pm 22.3 20.9 12.3 53 5.7 S 11 17 6 9 1016.9 1016.9 0.0
03/02:00pm 21.6 20.0 11.6 53 5.6 SSE 11 19 6 10 1016.9 1016.9 0.0
03/01:30pm 20.8 19.9 11.2 54 5.3 SSE 7 13 4 7 1017.1 1017.1 0.0
03/01:00pm 21.6 21.0 12.2 55 5.3 SSE 7 11 4 6 1017.3 1017.3 0.0
03/12:30pm 20.8 19.8 10.9 53 5.4 S 7 13 4 7 1017.6 1017.6 0.0
03/12:00pm 21.1 20.3 11.7 55 5.2 SSE 7 13 4 7 1017.8 1017.8 0.0
03/11:30am 20.9 20.0 11.5 55 5.2 SSE 7 13 4 7 1017.8 1017.8 0.0
03/11:00am 19.8 19.3 12.6 63 4.0 S 7 15 4 8 1017.9 1017.9 0.0
03/10:30am 19.6 19.1 12.8 65 3.8 S 7 17 4 9 1017.7 1017.7 0.0
03/10:00am 19.4 18.8 12.2 63 4.0 S 7 13 4 7 1017.7 1017.7 0.0
03/09:30am 18.9 17.8 13.1 69 3.3 S 11 20 6 11 1017.4 1017.4 0.0
03/09:00am 18.3 17.5 13.0 71 3.0 S 9 19 5 10 1017.1 1017.1 0.0
03/08:30am 17.3 17.6 13.4 78 2.2 SW 4 4 2 2 1016.9 1016.9 0.0
03/08:00am 16.1 16.2 12.7 80 1.9 SW 4 6 2 3 1016.8 1016.8 0.0
03/07:30am 15.9 15.9 12.5 80 1.9 SW 4 6 2 3 1016.6 1016.6 0.0
03/07:00am 15.8 15.7 12.2 79 2.0 SW 4 6 2 3 1016.0 1016.0 0.0
03/06:30am 15.9 15.4 12.1 78 2.1 SW 6 7 3 4 1015.9 1015.9 0.0
03/06:00am 16.0 15.5 12.0 77 2.2 WSW 6 7 3 4 1015.5 1015.5 0.0
03/05:30am 15.9 15.7 11.9 77 2.2 WSW 4 6 2 3 1015.3 1015.3 0.0
03/05:00am 15.9 15.7 11.7 76 2.3 WSW 4 6 2 3 1015.2 1015.2 0.0
03/04:30am 16.3 15.7 11.7 74 2.5 SW 6 7 3 4 1015.1 1015.1 0.0
03/04:00am 17.1 16.4 12.0 72 2.8 SSW 7 11 4 6 1015.1 1015.1 0.0
03/03:30am 16.7 16.1 11.6 72 2.8 SW 6 9 3 5 1015.2 1015.2 0.0
03/03:00am 17.0 16.1 11.5 70 3.0 SW 7 11 4 6 1015.7 1015.7 0.0
03/02:30am 17.0 17.0 12.3 74 2.6 WSW 4 6 2 3 1015.6 1015.6 0.0
03/02:00am 17.2 16.9 13.3 78 2.2 SW 7 9 4 5 1015.8 1015.8 0.0
03/01:30am 17.2 17.7 14.1 82 1.8 WSW 4 6 2 3 1015.8 1015.8 0.0
03/01:00am 17.6 18.4 14.7 83 1.7 S 4 7 2 4 1015.5 1015.5 0.0
03/12:30am 17.6 18.3 14.5 82 1.8 SE 4 7 2 4 1015.2 1015.2 0.0
03/12:00am 17.5 18.2 14.6 83 1.7 SSE 4 7 2 4 1015.4 1015.4 0.0
 
Date/Time
EDT
Temp
°C
App
Temp
°C
Dew
Point
Rel
Hum
%
Delta-T
°C
Wind Press
QNH
hPa
Press
MSL
hPa
Rain
since 9 am
mm
Dir
 
Spd
km/h
Gust
km/h
Spd
kts
Gust
kts
02/11:30pm 17.9 18.8 15.0 83 1.7 SE 4 7 2 4 1015.6 1015.6 0.0
02/11:00pm 18.1 18.2 15.4 84 1.6 ESE 9 13 5 7 1015.7 1015.7 0.0
02/10:30pm 18.1 18.1 15.2 83 1.7 ESE 9 17 5 9 1015.9 1015.9 0.0
02/10:00pm 17.9 18.2 15.0 83 1.7 SSE 7 13 4 7 1015.8 1015.8 0.0
02/09:30pm 18.1 18.3 14.8 81 1.9 SE 7 11 4 6 1015.6 1015.6 0.0
02/09:00pm 18.0 17.7 14.5 80 2.0 SE 9 13 5 7 1015.3 1015.3 0.0
02/08:30pm 17.8 17.5 14.3 80 2.0 SSE 9 13 5 7 1015.2 1015.2 0.0
02/08:00pm 17.7 17.2 13.8 78 2.2 S 9 13 5 7 1015.0 1015.0 0.0
02/07:30pm 18.4 18.3 13.9 75 2.6 S 7 11 4 6 1014.9 1014.9 0.0
02/07:00pm 18.8 18.2 13.6 72 3.0 SSE 9 15 5 8 1014.5 1014.5 0.0
02/06:30pm 19.4 18.7 14.2 72 3.0 SSE 11 15 6 8 1014.3 1014.3 0.0
02/06:00pm 19.6 18.6 13.5 68 3.5 SSE 11 17 6 9 1014.2 1014.2 0.0
02/05:30pm 20.2 19.6 13.4 65 3.9 SE 9 13 5 7 1014.1 1014.1 0.0
02/05:00pm 20.3 19.8 12.5 61 4.4 SE 7 11 4 6 1014.4 1014.4 0.0
02/04:30pm 20.9 20.4 12.6 59 4.7 SSE 7 13 4 7 1014.8 1014.8 0.0
02/04:00pm 20.7 20.2 12.1 58 4.8 SE 6 9 3 5 1014.6 1014.6 0.0
02/03:30pm 20.1 19.7 12.3 61 4.4 SE 6 9 3 5 1015.5 1015.5 0.0
02/03:00pm 19.7 18.9 11.2 58 4.7 SSE 6 9 3 5 1015.3 1015.3 0.0
02/02:30pm 20.6 20.0 11.8 57 4.9 SSE 6 11 3 6 1016.2 1016.2 0.0
02/02:00pm 20.8 20.0 11.2 54 5.3 SSE 6 9 3 5 1016.1 1016.1 0.0

Other Formats:

Comma delimited format used in spreadsheet applications
http://www.bom.gov.au/fwo/IDV60801/IDV60801.94892.axf

JavaScript Object Notation format (JSON) in row-major order
http://www.bom.gov.au/fwo/IDV60801/IDV60801.94892.json